Location: Orange Harbor Mobile Home Park
(26.6923°N, 81.7937°W)
Time: 06:41:15
(UTC+00:00)

Yuri Rocket - Pass Details

Date: 19 September 2020
Orbit: 568 x 1914 km, 28.2° (Epoch: 29 October)

Event Time Altitude Azimuth Distance (km) Brightness Sun altitude
Exits shadow 10:01:35 22° 217° (SW) 1,439 4.5 -17.0°
Maximum altitude 10:04:17 43° 156° (SSE) 994 4.2 -16.5°
Drops below altitude 10° 10:09:48 10° 85° (E) 2,547 7.6 -15.2°
Sets 10:12:56 0° 80° (E) 3,716 9.0 -14.6°
